CW1490 Weather Reports


Display with metric or nautical units.
time (UTC)temp
F
wind
direction
speed
MPH
gust
MPH
rain 1hr
in
rain 24hr
in
rain mn
in
humidity
%
barometer
mb
20170226210914 35 8 7.0 16.0 0.00 0.57 0.00 49 1014.6
20170226205412 35 233 2.0 11.0 0.00 0.57 0.00 50 1014.4
20170226203910 36 335 1.0 10.0 0.00 0.57 0.00 50 1014.0
20170226202508 35 305 5.0 16.0 0.00 0.57 0.00 49 1013.9
20170226200909 36 281 4.0 10.0 0.00 0.57 0.00 49 1013.9
20170226195407 35 18 4.0 17.0 0.00 0.57 0.00 47 1013.5
20170226193907 36 44 3.0 14.0 0.00 0.57 0.00 49 1013.3
20170226192400 36 35 3.0 16.0 0.00 0.57 0.00 50 1012.9
20170226190858 37 295 4.0 15.0 0.00 0.57 0.00 48 1012.8
20170226185400 37 257 3.0 11.0 0.00 0.57 0.00 51 1012.7
20170226184055 37 350 5.0 16.0 0.00 0.57 0.00 49 1012.6
20170226182353 36 302 7.0 18.0 0.00 0.57 0.00 47 1012.4
20170226180902 36 301 7.0 18.0 0.00 0.57 0.00 48 1012.2
20170226175349 37 31 5.0 12.0 0.00 0.57 0.00 49 1012.0
20170226173847 37 312 9.0 17.0 0.00 0.57 0.00 49 1011.8
20170226172352 37 258 4.0 16.0 0.00 0.57 0.00 51 1011.7
20170226170845 37 346 8.0 16.0 0.00 0.57 0.00 50 1011.8
20170226165341 36 305 5.0 18.0 0.00 0.57 0.00 51 1011.8
20170226163841 35 300 3.0 15.0 0.00 0.57 0.00 52 1011.7
20170226162341 35 291 5.0 15.0 0.00 0.57 0.00 54 1011.6
20170226160835 36 308 5.0 12.0 0.00 0.57 0.00 54 1011.4
20170226155334 36 312 4.0 14.0 0.00 0.57 0.00 58 1011.4
20170226153834 35 52 6.0 15.0 0.00 0.57 0.00 57 1011.3
20170226152328 35 350 4.0 14.0 0.00 0.57 0.00 58 1011.1
20170226150837 35 65 2.0 9.0 0.00 0.57 0.00 58 1010.8
20170226145325 34 39 7.0 16.0 0.00 0.57 0.00 59 1010.6
20170226143823 35 23 6.0 15.0 0.00 0.57 0.00 60 1010.1
20170226142322 35 328 4.0 11.0 0.00 0.57 0.00 61 1009.8
20170226140822 35 283 6.0 14.0 0.00 0.57 0.00 61 1009.5
20170226135318 35 335 6.0 16.0 0.00 0.57 0.00 60 1009.2
20170226133818 35 299 4.0 14.0 0.00 0.57 0.00 62 1008.9
20170226132311 34 299 4.0 11.0 0.00 0.57 0.00 60 1008.7
20170226130810 35 293 5.0 14.0 0.00 0.57 0.00 60 1008.5
20170226125307 34 21 3.0 6.0 0.00 0.57 0.00 61 1008.2
20170226123802 34 9 4.0 11.0 0.00 0.57 0.00 61 1008.1
20170226122303 34 327 5.0 15.0 0.00 0.57 0.00 60 1007.6
20170226120755 34 35 6.0 13.0 0.00 0.57 0.00 60 1006.9
20170226115253 34 324 3.0 11.0 0.00 0.57 0.00 59 1006.8
20170226113809 34 320 5.0 12.0 0.00 0.57 0.00 59 1006.4
20170226112450 34 27 9.0 17.0 0.00 0.57 0.00 60 1006.2
20170226110745 35 359 5.0 14.0 0.00 0.57 0.00 61 1005.9
20170226105242 35 315 4.0 13.0 0.00 0.57 0.00 62 1005.6
20170226103744 35 301 7.0 18.0 0.00 0.57 0.00 63 1005.3
20170226102236 36 38 5.0 12.0 0.00 0.57 0.00 64 1005.0
20170226100735 36 35 7.0 12.0 0.00 0.57 0.00 65 1004.7
20170226095231 36 278 5.0 14.0 0.00 0.57 0.00 66 1004.4
20170226093736 36 335 4.0 12.0 0.00 0.57 0.00 67 1004.0
20170226092247 37 64 2.0 8.0 0.00 0.57 0.00 66 1003.7
20170226090729 36 46 2.0 5.0 0.00 0.57 0.00 71 1003.4
20170226085223 37 62 3.0 7.0 0.00 0.57 0.00 69 1003.0
20170226083722 37 359 2.0 14.0 0.00 0.57 0.00 69 1003.0
20170226082221 37 254 3.0 8.0 0.00 0.57 0.00 69 1002.8
20170226080724 37 268 2.0 11.0 0.00 0.57 0.00 69 1002.4
20170226075217 38 350 3.0 19.0 0.00 0.57 0.00 72 1002.0
20170226073710 38 282 3.0 17.0 0.00 0.57 0.00 73 1001.7
20170226072211 39 44 5.0 17.0 0.00 0.57 0.00 74 1001.2
20170226070705 38 69 3.0 8.0 0.00 0.57 0.00 78 1001.4
20170226065204 39 255 2.0 8.0 0.00 0.57 0.00 78 1001.3
20170226063701 39 276 1.0 7.0 0.00 0.57 0.00 79 1001.1
20170226062158 39 303 2.0 6.0 0.00 0.57 0.00 83 1000.9
20170226060658 39 297 5.0 12.0 0.00 0.57 0.00 90 1000.7
20170226055153 38 309 1.0 3.0 0.00 0.57 0.00 94 1000.5
20170226053653 37 267 0.0 4.0 0.00 0.57 0.00 95 1000.6
20170226052149 37 4 0.0 2.0 0.00 0.57 0.00 95 1000.2
20170226050650 38 320 2.0 9.0 0.00 0.57 0.00 95 1000.2
20170226045149 38 68 0.0 3.0 0.00 0.57 0.57 95 1000.0
20170226043642 39 278 1.0 2.0 0.00 0.57 0.57 95 1000.5
20170226042145 40 354 0.0 1.0 0.00 0.57 0.57 94 1000.1
20170226040742 40 29 1.0 2.0 0.00 0.57 0.57 95 1000.1
20170226035140 40 21 1.0 3.0 0.00 0.57 0.57 94 1000.3
20170226033641 40 359 1.0 3.0 0.01 0.57 0.57 94 1000.3
20170226032139 40 345 2.0 4.0 0.05 0.57 0.57 93 999.8
20170226030637 41 69 2.0 4.0 0.08 0.57 0.57 92 1000.6
20170226025143 42 133 3.0 9.0 0.10 0.57 0.57 93 1000.8
20170226023651 42 295 3.0 6.0 0.11 0.56 0.56 93 1000.0
20170226022134 43 21 1.0 5.0 0.08 0.53 0.53 94 999.1
20170226020634 44 212 1.0 5.0 0.07 0.50 0.50 94 999.6
20170226015136 44 27 1.0 3.0 0.09 0.48 0.48 94 999.5
20170226013636 44 145 1.0 3.0 0.26 0.46 0.46 92 998.6
20170226012133 45 288 2.0 9.0 0.44 0.45 0.45 92 997.7
20170226010636 45 228 2.0 7.0 0.42 0.43 0.43 91 998.1
20170226005132 47 210 6.0 16.0 0.37 0.38 0.38 88 998.2
20170226003637 53 276 11.0 29.0 0.18 0.19 0.19 87 996.8
20170226002130 57 208 7.0 11.0 0.01 0.01 0.01 93 995.0
20170226000631 56 225 6.0 10.0 0.01 0.01 0.01 93 995.1
20170225235126 56 231 5.0 12.0 0.01 0.01 0.01 92 995.6
20170225233621 58 225 4.0 11.0 0.00 0.00 0.00 88 996.3
20170225232119 59 247 5.0 11.0 0.00 0.00 0.00 85 996.8
20170225230622 60 235 5.0 11.0 0.00 0.00 0.00 82 997.0
20170225225117 60 245 5.0 12.0 0.00 0.00 0.00 83 997.0
20170225223622 60 257 4.0 8.0 0.00 0.00 0.00 83 996.8
20170225222118 60 235 4.0 8.0 0.00 0.00 0.00 84 997.1
20170225220623 60 209 2.0 5.0 0.00 0.00 0.00 86 996.7
20170225215114 60 218 2.0 5.0 0.00 0.00 0.00 86 997.2
20170225213618 60 219 2.0 5.0 0.00 0.00 0.00 86 997.3
20170225212111 60 206 6.0 19.0 0.00 0.00 0.00 85 997.7